Waarnemingen

Advertentie
Mijn weer
Visby Flygplats, Zweden (2590): temperatuur & dauwpunt: 11.08.2018 13:00:00 - 17.08.2018 13:00:00 (CEST)Visby Flygplats, Zweden (2590): windsnelheid & windstoten: 11.08.2018 13:00:00 - 17.08.2018 13:00:00 (CEST)Visby Flygplats, Zweden (2590): windrichting: 11.08.2018 13:00:00 - 17.08.2018 13:00:00 (CEST)Visby Flygplats, Zweden (2590): luchtdruk: 11.08.2018 13:00:00 - 17.08.2018 13:00:00 (CEST)Visby Flygplats, Zweden (2590): zicht: 11.08.2018 13:00:00 - 17.08.2018 13:00:00 (CEST)Visby Flygplats, Zweden (2590): neerslag: 11.08.2018 13:00:00 - 17.08.2018 13:00:00 (CEST)
Datum & Tijd tt [°C] td [°C] ff [km/u] ff [kn] fx [km/u] fx [kn] dd ppp [hPa] vv [km] rr [mm]
17.08.2018 13:00:00 25,5 14,9 28 15 43 23 ZZW 1015,7 10 0,0
17.08.2018 12:00:00 25,1 14,6 28 15 36 19 ZZW 1016,1 10 0,0
17.08.2018 11:00:00 24,4 15,3 22 12 36 19 Z 1016,2 10 0,0
17.08.2018 10:00:00 23,6 16,9 21 11 29 16 Z 1016,4 10 0,0
17.08.2018 09:00:00 22,0 17,2 21 11 25 14 Z 1016,4 10 0,0
17.08.2018 08:00:00 20,0 17,6 18 10 29 16 Z 1016,6 10 0,0
17.08.2018 07:00:00 18,1 16,8 18 10 25 14 Z 1016,6 10 0,0
17.08.2018 06:00:00 16,8 15,3 18 10 22 12 Z 1016,6 10 0,0
17.08.2018 05:00:00 16,6 15,3 16 9 22 12 ZZO 1016,8 10 0,0
17.08.2018 04:00:00 16,8 16,0 18 10 25 14 ZZO 1016,8 10 0,0
17.08.2018 03:00:00 16,8 16,2 18 10 22 12 Z 1017,0 10 0,0
17.08.2018 02:00:00 17,0 16,4 16 9 25 14 Z 1017,2 10 -
17.08.2018 01:00:00 17,3 16,7 18 10 25 14 Z 1017,3 10 0,0
17.08.2018 00:00:00 17,8 17,2 21 11 29 16 Z 1017,3 8 0,0
16.08.2018 23:00:00 17,5 16,9 16 9 25 14 Z 1017,0 8 0,0
16.08.2018 22:00:00 17,8 16,8 15 8 22 12 ZZO 1017,0 10 0,0
16.08.2018 21:00:00 18,5 15,9 18 10 25 14 Z 1017,0 10 0,0
16.08.2018 20:00:00 19,4 15,8 22 12 29 16 Z 1016,9 10 0,0
16.08.2018 19:00:00 20,4 15,8 22 12 29 16 ZZW 1016,8 10 0,0
16.08.2018 18:00:00 21,7 16,0 22 12 29 16 ZZW 1016,9 10 0,0
16.08.2018 17:00:00 22,3 15,6 22 12 32 18 ZZW 1017,0 10 0,0
16.08.2018 16:00:00 22,4 15,5 28 15 36 19 ZZW 1017,3 10 0,0
16.08.2018 15:00:00 22,6 15,7 22 12 32 18 ZZW 1017,5 10 0,0
16.08.2018 14:00:00 22,6 15,2 21 11 32 18 ZZW 1017,5 10 0,0
16.08.2018 13:00:00 22,5 15,8 18 10 25 14 ZW 1017,5 10 0,0
16.08.2018 12:00:00 21,9 14,3 16 9 22 12 WZW 1017,6 10 0,0
16.08.2018 11:00:00 21,5 15,8 16 9 22 12 ZW 1017,9 10 0,0
16.08.2018 10:00:00 20,2 16,4 18 10 22 12 ZZW 1017,7 10 0,0
16.08.2018 09:00:00 19,6 17,6 15 8 22 12 Z 1017,6 10 0,0
16.08.2018 08:00:00 17,7 17,1 15 8 18 10 Z 1017,4 10 0,0
16.08.2018 07:00:00 15,8 15,3 11 6 14 8 Z 1017,2 10 0,0
16.08.2018 06:00:00 14,5 14,2 9 5 11 6 Z 1017,2 10 0,0
16.08.2018 05:00:00 13,8 13,5 8 4 11 6 Z 1017,0 10 0,0
16.08.2018 04:00:00 13,0 12,5 9 5 7 4 Z 1016,9 10 0,0
16.08.2018 03:00:00 12,4 11,9 5 3 7 4 ZZO 1016,7 10 0,0
16.08.2018 02:00:00 12,2 11,7 4 2 7 4 Z 1016,6 10 0,0
16.08.2018 01:00:00 12,2 11,7 5 3 7 4 Z 1016,7 10 0,0
16.08.2018 00:00:00 12,1 11,5 4 2 7 4 Z 1016,3 10 0,0
15.08.2018 23:00:00 13,2 12,6 5 3 7 4 ZZW 1016,2 10 0,0
15.08.2018 22:00:00 13,1 12,5 5 3 7 4 Z 1015,9 10 0,0
15.08.2018 21:00:00 13,7 12,1 0 0 11 6 N 1015,5 10 0,0
15.08.2018 20:00:00 16,9 14,2 8 4 14 8 NW 1015,0 10 0,0
15.08.2018 19:00:00 17,8 14,5 8 4 18 10 N 1014,5 10 0,0
15.08.2018 18:00:00 18,2 14,5 11 6 22 12 N 1014,1 10 0,0
15.08.2018 17:00:00 18,5 14,6 16 9 25 14 NNW 1013,9 10 0,0
15.08.2018 16:00:00 18,0 15,1 18 10 25 14 NNW 1013,5 10 0,0
15.08.2018 15:00:00 17,7 15,3 21 11 32 18 NNW 1013,0 10 0,0
15.08.2018 14:00:00 17,5 15,1 21 11 25 14 NNW 1012,4 10 0,0
15.08.2018 13:00:00 17,5 15,1 21 11 29 16 NNW 1011,6 10 0,0
15.08.2018 12:00:00 17,8 15,4 21 11 29 16 NW 1010,9 10 0,0
15.08.2018 11:00:00 17,5 15,1 21 11 32 18 NW 1010,4 10 0,0
15.08.2018 10:00:00 17,6 15,6 21 11 29 16 NNW 1009,6 10 0,0
15.08.2018 09:00:00 17,8 16,1 21 11 25 14 N 1008,8 10 0,0
15.08.2018 08:00:00 17,8 16,1 15 8 25 14 N 1008,2 10 0,0
15.08.2018 07:00:00 17,8 16,3 15 8 18 10 N 1007,6 10 0,0
15.08.2018 06:00:00 16,8 16,3 8 4 11 6 NNO 1007,0 10 0,0
15.08.2018 05:00:00 16,4 15,9 9 5 14 8 NO 1006,6 10 0,2
15.08.2018 04:00:00 15,7 15,4 5 3 11 6 NO 1006,3 10 0,0
15.08.2018 03:00:00 15,8 15,5 8 4 14 8 ONO 1005,9 10 0,0
15.08.2018 02:00:00 16,4 16,1 5 3 7 4 ONO 1005,8 10 0,4
15.08.2018 01:00:00 16,6 16,3 9 5 14 8 O 1005,7 7 0,0
15.08.2018 00:00:00 16,8 16,5 9 5 14 8 O 1005,7 2,3 0,0
14.08.2018 23:00:00 16,7 16,2 5 3 11 6 O 1005,5 2,5 0,0
14.08.2018 22:00:00 16,4 15,9 9 5 14 8 OZO 1005,7 10 0,6
14.08.2018 21:00:00 16,2 15,7 11 6 22 12 OZO 1006,2 10 1,0
14.08.2018 20:00:00 16,1 15,5 16 9 22 12 O 1005,9 10 4,0
14.08.2018 19:00:00 16,0 15,4 18 10 25 14 O 1006,2 10 1,0
14.08.2018 18:00:00 16,7 15,1 18 10 25 14 O 1006,8 10 0,0
14.08.2018 17:00:00 17,1 15,3 16 9 22 12 OZO 1007,2 10 0,0
14.08.2018 16:00:00 17,2 15,9 13 7 18 10 OZO 1007,7 10 0,1
14.08.2018 15:00:00 17,0 15,9 13 7 22 12 ZO 1008,1 10 0,4
14.08.2018 14:00:00 17,9 15,5 15 8 25 14 ZO 1008,4 10 0,0
14.08.2018 13:00:00 18,0 15,1 16 9 32 18 OZO 1008,7 10 0,0
14.08.2018 12:00:00 17,8 14,1 22 12 32 18 OZO 1008,7 10 0,0
14.08.2018 11:00:00 17,4 13,5 22 12 25 14 OZO 1009,5 10 0,0
14.08.2018 10:00:00 17,1 14,2 21 11 22 12 OZO 1009,5 10 0,0
14.08.2018 09:00:00 16,6 14,4 13 7 18 10 O 1009,5 10 0,0
14.08.2018 08:00:00 15,5 14,2 11 6 14 8 OZO 1009,7 10 0,0
14.08.2018 07:00:00 14,6 13,0 13 7 18 10 O 1009,9 10 0,0
14.08.2018 06:00:00 13,6 12,2 11 6 14 8 O 1010,2 10 0,2
14.08.2018 05:00:00 13,3 12,0 9 5 11 6 OZO 1010,5 10 0,0
14.08.2018 04:00:00 12,6 11,8 9 5 11 6 OZO 1010,7 10 0,0
14.08.2018 03:00:00 11,4 10,6 9 5 7 4 OZO 1010,9 10 0,0
14.08.2018 02:00:00 10,2 9,3 8 4 7 4 OZO 1011,0 10 0,0
14.08.2018 01:00:00 10,6 9,0 5 3 7 4 ZO 1011,1 10 0,0
14.08.2018 00:00:00 9,4 8,3 8 4 7 4 ZO 1011,0 10 0,0
13.08.2018 23:00:00 9,9 8,5 4 2 7 4 OZO 1010,8 10 0,0
13.08.2018 22:00:00 11,3 9,6 8 4 7 4 Z 1010,7 10 0,0
13.08.2018 21:00:00 12,4 9,6 8 4 14 8 ZZW 1010,9 10 0,0
13.08.2018 20:00:00 16,6 9,3 8 4 22 12 W 1010,7 10 0,0
13.08.2018 19:00:00 17,4 9,1 9 5 22 12 WZW 1010,6 10 0,0
13.08.2018 18:00:00 17,7 9,3 13 7 22 12 WZW 1010,8 10 0,0
13.08.2018 17:00:00 17,5 9,4 11 6 18 10 W 1010,8 10 0,0
13.08.2018 16:00:00 17,2 10,3 11 6 14 8 W 1010,8 10 0,0
13.08.2018 15:00:00 17,0 10,1 9 5 18 10 NW 1011,1 10 0,0
13.08.2018 14:00:00 16,9 10,7 13 7 - - W 1011,3 10 0,0
13.08.2018 13:00:00 16,8 10,4 11 6 22 12 W 1011,0 10 0,0
13.08.2018 12:00:00 16,4 10,5 11 6 18 10 WNW 1011,1 10 0,0
13.08.2018 11:00:00 16,6 10,9 11 6 22 12 W 1011,1 10 0,0
13.08.2018 10:00:00 15,7 10,7 11 6 18 10 W 1010,6 10 0,0
13.08.2018 09:00:00 16,2 11,1 13 7 18 10 W 1010,4 10 0,0
13.08.2018 08:00:00 15,6 11,0 11 6 22 12 WNW 1010,2 10 0,0
13.08.2018 07:00:00 14,9 10,7 11 6 22 12 WNW 1010,0 10 0,0
13.08.2018 06:00:00 14,6 10,0 16 9 25 14 WNW 1009,9 10 0,0
13.08.2018 05:00:00 14,6 10,4 18 10 29 16 W 1009,8 10 0,0
13.08.2018 04:00:00 14,8 10,0 21 11 25 14 W 1009,3 10 0,0
13.08.2018 03:00:00 15,1 10,3 18 10 29 16 WNW 1009,3 10 0,0
13.08.2018 02:00:00 15,0 9,6 21 11 32 18 WNW 1009,3 10 0,0
13.08.2018 01:00:00 15,1 10,3 24 13 36 19 NW 1009,1 10 0,0
13.08.2018 00:00:00 15,4 10,2 28 15 47 25 WNW 1009,1 10 0,0
12.08.2018 23:00:00 16,2 10,5 29 16 43 23 NW 1008,8 10 0,0
12.08.2018 22:00:00 17,3 9,7 34 18 47 25 WNW 1008,5 10 0,0
12.08.2018 21:00:00 18,0 9,4 29 16 47 25 W 1008,1 10 0,0
12.08.2018 20:00:00 18,0 8,8 31 17 43 23 W 1007,9 10 0,0
12.08.2018 19:00:00 18,3 10,4 34 18 47 25 W 1007,6 10 0,0
12.08.2018 18:00:00 18,4 9,5 39 21 47 25 W 1007,5 10 0,0
12.08.2018 17:00:00 17,3 9,9 35 19 50 27 W 1007,7 10 0,7
12.08.2018 16:00:00 16,3 11,0 39 21 47 25 WZW 1007,6 10 0,2
12.08.2018 15:00:00 18,3 10,1 31 17 54 29 W 1007,2 10 0,0
12.08.2018 14:00:00 17,9 10,3 31 17 58 31 W 1006,9 10 0,0
12.08.2018 13:00:00 16,7 11,0 41 22 58 31 W 1006,7 10 0,0
12.08.2018 12:00:00 16,4 12,0 39 21 54 29 W 1006,3 10 0,0
12.08.2018 11:00:00 15,6 12,5 34 18 50 27 W 1006,0 10 0,0
12.08.2018 10:00:00 15,1 12,8 31 17 50 27 W 1005,5 10 0,4
12.08.2018 09:00:00 15,8 12,2 29 16 40 21 W 1005,2 45 0,0
12.08.2018 08:00:00 15,6 11,2 24 13 40 21 W 1005,1 10 0,0
12.08.2018 07:00:00 15,2 12,0 21 11 32 18 W 1005,0 10 0,0
12.08.2018 06:00:00 14,5 11,6 22 12 36 19 W 1005,2 10 0,0
12.08.2018 05:00:00 14,8 12,5 21 11 29 16 W 1005,2 10 2,0
12.08.2018 04:00:00 12,8 11,4 11 6 22 12 Z 1005,6 10 3,0
12.08.2018 03:00:00 12,7 12,1 16 9 22 12 ZZW 1006,9 5 19,0
12.08.2018 02:00:00 13,0 12,1 13 7 22 12 ZZO 1007,2 10 0,3
12.08.2018 01:00:00 12,4 11,6 13 7 18 10 ZO 1008,1 10 0,0
12.08.2018 00:00:00 12,6 12,0 13 7 18 10 ZO 1008,9 10 0,0
11.08.2018 23:00:00 13,3 12,7 13 7 29 16 OZO 1009,9 10 0,6
11.08.2018 22:00:00 14,2 13,1 21 11 29 16 ZZO 1011,4 10 1,0
11.08.2018 21:00:00 13,9 12,9 9 5 32 18 ONO 1011,9 10 5,0
11.08.2018 20:00:00 14,9 12,9 13 7 32 18 ZO 1012,9 10 0,0
11.08.2018 19:00:00 15,1 13,6 13 7 25 14 OZO 1012,9 10 2,0
11.08.2018 18:00:00 15,7 12,3 18 10 25 14 W 1014,3 10 1,0
11.08.2018 17:00:00 15,6 13,1 15 8 29 16 WZW 1014,9 10 2,0
11.08.2018 16:00:00 16,4 11,8 22 12 40 21 WNW 1015,7 10 0,3
11.08.2018 15:00:00 21,6 11,0 22 12 36 19 Z 1015,5 10 0,0
11.08.2018 14:00:00 21,2 10,7 18 10 32 18 ZW 1016,1 10 0,0
11.08.2018 13:00:00 21,0 10,2 21 11 29 16 ZW 1016,9 10 0,0

tt = temperatuur
td = dauwpunt
ff = windsnelheid
fx = windstoten
dd = windrichting
ppp = luchtdruk
vv = zicht
rr = neerslag

Weerstations in de omgeving